ARIANE 5 DEB (SYLDA), 54744

Orbit data source: Space-Track

ARIANE 5 DEB (SYLDA), 54744 is space debris in HEO originally from a launch on Tue, 13 Dec 2022 UTC launched from the French Guiana (FRGUI). Debris objects in space refer to the collection of defunct objects orbiting the Earth. Examples of debris include non-operational satellites, rocket bodies, and fragments generated from explosions, collisions, or faulty payload assembly.

Loading next visibility...
Identifier
54744, 2022-170D
Orbit
HEO
Last TLE update
16 hours ago
Origin
Manufacturer
ADS/Bremen
Mission
Spacecraft
Bus & Motor
SYLDA 5, Unknown motor
Mass
440 kg wet, 440 kg dry
Launch date (UTC)
2022-12-13 (3 years ago)
Launch vehicle
Unknown
Launch site
French Guiana (FRGUI)
Object type
Payload
Rocket body
Debris
Shape & HBR
Cyl, 5.5 m
Radar Cross Section
27.391 m², Large (>1 m²)

Expand to show TLE details & history

TLE from 16 hours ago
0 ARIANE 5 DEB (SYLDA)
1 54744U 22170D   25169.63823095  .00035457  00000-0  41039-2 0  9998
2 54744   6.2401 275.2930 5870904  48.8203 348.6861  4.26219038 32337
Epoch: 2025-06-18T15:19Z
TLE epoch observation values (Epoch: 2025-06-18T15:19:03.154Z)
Latitude
0.00003°
Longitude
138.50307°
Altitude
1,212.761 km
Speed
8.956 km/s
True Right ascension
18h 21m 32s
True Declination
0° 00' 00"
Sunlit
Object was in full shadow at epoch
Visualization orbit readout
Latitude
-6.16689°
Longitude
38.08225°
Altitude
14,958.596 km
Speed
3.544 km/s
Apparent Right ascension
10h 48m 01s
Apparent Declination
-16° 13' 37"
Sunlit
Object is in daylight
Visualization observer readout
Local Sidereal Time
17:43:28
Azimuth
265.907° W
Elevation
-20.84°
Doppler factor
1
Orbital elements
Apogee altitude
19,132.368 km
Perigee altitude
258.871 km
Semi-major axis
16,073.756 km
Eccentricity
0.58709
Inclination
6.2401°
RAAN
275.293°
Arg. of periapsis
48.8203°
True anomaly
Unknown
Mean anomaly
348.6861°
Eccentric anomaly
Unknown
Mean motion
1.06504 °/min
Orbital period
338.01 mins
BSTAR
0.0041039
Loading maneuver chart data...
Loading SW <> Apogee altitude chart data...
Loading historical data...
Loading historical data...
Loading historical data...
Loading historical data...
Loading historical data...
Loading historical data...
Loading historical data...
Other satellites on launch #170 in the year 2022 (2022-12-13 UTC)

ARIANE 5 DEB (SYLDA) Visibility forecast

Observer location: undefined°, undefined°

Span
Click to sort rows by Start time (UTC) header in descending order
Start Az.
Max El. time (UTC)
Max El. Az.
Max El.
End time (UTC)
End Az.
255 mins2025-06-19 20:12:55.756Z230.345° WSW2025-06-19 21:40:55.756Z180.08° SSW29.134°2025-06-20 00:27:55.756Z138.487° SSE
|